Overview Statistics Trail Chart Weather Telemetry Raw packets
 

This is the latest recevied weather packets stored in our database for station/object WA6ODQ-13. If no packets are shown the sender has not sent any weather packets the latest 10 day(s).

<< 72 73 74 75 76 77 78 >>
Time Temp. Humidity Pressure Rain* Wind** Luminosity Snow
1788155932 18.33° C 72% 1008.1 hPa 0 mm - 0 W/m² -
1788155626 18.33° C 70% 1008.3 hPa 0 mm - 0 W/m² -
1788155322 17.78° C 71% 1008.3 hPa 0 mm - 0 W/m² -
1788155017 18.33° C 71% 1008.2 hPa 0 mm - 0 W/m² -
1788154711 18.33° C 70% 1008.3 hPa 0 mm - 0 W/m² -
1788154409 18.33° C 69% 1008.3 hPa 0 mm - 0 W/m² -
1788154104 18.33° C 70% 1008.3 hPa 0 mm - 0 W/m² -
1788153803 18.89° C 69% 1008.1 hPa 0 mm - 0 W/m² -
1788153501 18.89° C 68% 1008.2 hPa 0 mm - 0 W/m² -
1788153200 18.89° C 68% 1008.3 hPa 0 mm - 0 W/m² -
1788152895 18.89° C 69% 1008.3 hPa 0 mm - 0 W/m² -
1788152594 18.89° C 69% 1008.2 hPa 0 mm - 0 W/m² -
1788152288 18.89° C 69% 1008.1 hPa 0 mm - 0 W/m² -
1788151982 19.44° C 68% 1008.3 hPa 0 mm - 0 W/m² -
1788151677 18.89° C 69% 1008.1 hPa 0 mm - 0 W/m² -
1788151378 19.44° C 68% 1008.1 hPa 0 mm - 0 W/m² -
1788151063 19.44° C 67% 1008.2 hPa 0 mm - 0 W/m² -
1788150757 20° C 65% 1008.1 hPa 0 mm - 0 W/m² -
1788150456 20° C 64% 1008.1 hPa 0 mm - 0 W/m² -
1788150151 20° C 65% 1008 hPa 0 mm - 0 W/m² -
1788149846 20° C 64% 1008.2 hPa 0 mm - 0 W/m² -
1788149546 20.56° C 63% 1008.3 hPa 0 mm - 0 W/m² -
1788149241 20.56° C 62% 1008.1 hPa 0 mm - 0 W/m² -
1788148941 20.56° C 62% 1007.8 hPa 0 mm - 0 W/m² -
1788148639 20.56° C 62% 1008.1 hPa 0 mm - 0 W/m² -

* Rain latest hour (hover to see other rain measurements)
** Current wind speed in m/s (hover to see current wind gust speed)